Date,TemperatureHighF,TemperatureAvgF,TemperatureLowF,DewpointHighF,DewpointAvgF,DewpointLowF,HumidityHigh,HumidityAvg,HumidityLow,PressureMaxIn,PressureMinIn,WindSpeedMaxMPH,WindSpeedAvgMPH,GustSpeedMaxMPH,PrecipitationSumIn
2013-2-1,73.2,61.7,52.5,59.9,46.6,36.6,69,58,46,30.20,30.09,12,3,13,0.00
2013-2-2,73.5,64.1,55.1,54.7,47.5,35.7,85,56,40,30.19,30.05,10,2,13,0.00
2013-2-3,74.0,63.5,54.1,57.7,47.5,32.9,91,61,24,30.10,30.00,10,2,13,0.00
2013-2-4,75.3,62.4,49.6,55.1,47.4,39.0,85,60,31,30.07,29.95,8,1,12,0.00
2013-2-5,80.1,66.3,54.7,62.5,56.7,52.4,92,74,43,30.01,29.93,7,1,10,0.00
2013-2-6,79.2,70.0,60.7,65.5,61.7,59.0,95,76,57,30.03,29.95,8,1,8,0.00
2013-2-7,82.4,72.8,62.6,66.7,62.0,59.9,93,71,50,30.00,29.87,7,1,10,0.00
2013-2-8,83.2,74.3,68.4,69.4,66.6,57.4,93,78,56,29.96,29.84,14,2,17,0.00
2013-2-9,79.6,70.4,62.6,66.9,61.7,57.0,96,75,57,30.10,29.94,12,3,13,0.02
2013-2-10,75.4,71.3,66.4,64.0,60.4,55.8,81,69,61,30.18,30.07,13,3,18,0.02
2013-2-11,78.5,72.4,65.8,64.3,62.5,60.0,85,71,60,30.14,30.04,12,2,14,0.00
2013-2-12,85.7,74.1,63.9,68.7,64.8,60.7,95,75,44,30.05,29.90,8,1,12,0.00
2013-2-13,81.6,72.2,68.6,71.6,68.6,65.8,94,89,67,29.94,29.90,7,0,8,0.00
2013-2-14,82.8,72.8,62.4,70.6,66.2,60.0,93,81,58,29.94,29.79,21,3,30,0.56
2013-2-15,72.5,66.5,62.9,66.7,63.8,60.5,95,91,78,29.95,29.87,8,1,8,0.35
2013-2-16,74.2,65.1,54.2,63.7,55.4,43.6,95,74,35,30.01,29.81,24,5,24,0.00
2013-2-17,58.4,52.0,45.4,45.4,28.9,17.3,75,44,23,30.24,30.01,17,4,20,0.00
2013-2-18,69.6,59.4,47.4,55.0,43.9,32.2,66,57,43,30.24,30.13,12,3,13,0.00
2013-2-19,78.5,70.9,59.3,65.4,60.2,53.2,88,69,58,30.13,30.01,10,2,12,0.00
2013-2-20,79.2,71.0,64.7,65.1,63.0,56.0,93,77,45,30.04,29.94,11,1,12,0.00
2013-2-21,80.1,72.6,64.7,67.4,64.1,62.0,95,76,56,30.02,29.92,8,2,11,0.00
2013-2-22,81.8,75.7,71.3,69.6,67.9,64.1,87,77,63,30.03,29.94,12,2,13,0.00
2013-2-23,85.9,77.8,72.5,70.9,68.7,66.6,89,75,54,29.97,29.84,7,1,12,0.00
2013-2-24,88.4,77.5,71.8,72.4,68.7,61.2,94,76,41,29.92,29.82,12,1,13,0.00
2013-2-25,85.1,76.4,68.6,72.7,67.9,65.4,93,76,53,29.84,29.74,8,1,10,0.00
2013-2-26,86.3,79.0,74.9,72.0,69.3,66.1,86,73,53,29.83,29.73,16,2,20,0.00
2013-2-27,76.7,70.6,65.5,72.7,65.5,60.6,94,85,60,29.90,29.79,8,2,11,0.26
2013-2-28,70.6,65.0,60.1,63.7,54.0,46.1,93,69,47,29.94,29.83,12,2,14,0.00